QFA44D YSCB-YSSY

Flight info

Callsign QFA44D
Flight time 0h 32m
Altitude 17000
Route CB W423 CULIN Y59 RIVET
Aircraft B738/M-SDE2E3FGHIRWXY/LB1

Departure

Time 2026-04-26 01:44
Airport Canberra Airport (YSCB)

Arrival

Time 2026-04-26 02:16
Airport Sydney Kingsford Smith International Airport (YSSY)
Time Latitude Longitude Altitude Speed Heading
2026-04-26 01:05 -35.30797 149.19153 1878 ft 0 kts 269°
2026-04-26 01:34 -35.30797 149.19158 1879 ft 3 kts 269°
2026-04-26 01:35 -35.30797 149.19183 1879 ft 3 kts 270°
2026-04-26 01:35 -35.30796 149.19208 1879 ft 3 kts 253°
2026-04-26 01:35 -35.30786 149.19228 1873 ft 3 kts 210°
2026-04-26 01:35 -35.30769 149.19234 1879 ft 0 kts 186°
2026-04-26 01:38 -35.30809 149.19237 1874 ft 11 kts 174°
2026-04-26 01:38 -35.30917 149.19240 1878 ft 20 kts 180°
2026-04-26 01:39 -35.31072 149.19239 1877 ft 22 kts 180°
2026-04-26 01:39 -35.31189 149.19241 1877 ft 15 kts 179°
2026-04-26 01:39 -35.31296 149.19241 1879 ft 16 kts 182°
2026-04-26 01:39 -35.31403 149.19240 1879 ft 15 kts 180°
2026-04-26 01:40 -35.31509 149.19239 1879 ft 15 kts 180°
2026-04-26 01:40 -35.31616 149.19240 1876 ft 15 kts 179°
2026-04-26 01:40 -35.31722 149.19241 1879 ft 15 kts 180°
2026-04-26 01:40 -35.31830 149.19241 1879 ft 16 kts 180°
2026-04-26 01:41 -35.31938 149.19248 1877 ft 16 kts 165°
2026-04-26 01:41 -35.32006 149.19339 1879 ft 7 kts 99°
2026-04-26 01:41 -35.32013 149.19392 1877 ft 7 kts 99°
2026-04-26 01:41 -35.31996 149.19439 1875 ft 6 kts 36°
2026-04-26 01:42 -35.31955 149.19450 1879 ft 6 kts 354°
2026-04-26 01:42 -35.31910 149.19446 1879 ft 7 kts 358°
2026-04-26 01:42 -35.31862 149.19446 1879 ft 7 kts 359°
2026-04-26 01:42 -35.31812 149.19445 1879 ft 7 kts 359°
2026-04-26 01:43 -35.31759 149.19445 1879 ft 8 kts 360°
2026-04-26 01:43 -35.31694 149.19444 1879 ft 21 kts 359°
2026-04-26 01:43 -35.31233 149.19438 1879 ft 108 kts 359°
2026-04-26 01:43 -35.30279 149.19407 2111 ft 156 kts 359°
2026-04-26 01:44 -35.29108 149.19478 2786 ft 183 kts
2026-04-26 01:44 -35.27774 149.19590 3609 ft 198 kts
2026-04-26 01:44 -35.26374 149.19792 4426 ft 211 kts
2026-04-26 01:44 -35.24795 149.19969 4836 ft 241 kts
2026-04-26 01:45 -35.23089 149.20156 5701 ft 252 kts
2026-04-26 01:45 -35.21247 149.20364 6365 ft 275 kts
2026-04-26 01:45 -35.19345 149.20584 7415 ft 278 kts
2026-04-26 01:45 -35.17409 149.20813 8579 ft 280 kts
2026-04-26 01:46 -35.15442 149.21047 9509 ft 290 kts
2026-04-26 01:46 -35.13336 149.21299 9911 ft 319 kts
2026-04-26 01:46 -35.11007 149.21670 9961 ft 357 kts 12°
2026-04-26 01:46 -35.08578 149.22653 9962 ft 369 kts 20°
2026-04-26 01:47 -35.06267 149.23778 10002 ft 354 kts 21°
2026-04-26 01:47 -35.04027 149.24896 10062 ft 347 kts 21°
2026-04-26 01:47 -35.01742 149.26020 10278 ft 360 kts 21°
2026-04-26 01:47 -34.99392 149.27154 10982 ft 363 kts 20°
2026-04-26 01:48 -34.97032 149.28275 11839 ft 363 kts 20°
2026-04-26 01:48 -34.94670 149.29385 12574 ft 366 kts 20°
2026-04-26 01:48 -34.92278 149.30502 13279 ft 370 kts 20°
2026-04-26 01:48 -34.89861 149.31629 14015 ft 373 kts 20°
2026-04-26 01:49 -34.87427 149.32764 14697 ft 375 kts 20°
2026-04-26 01:49 -34.84978 149.33901 15349 ft 378 kts 20°
2026-04-26 01:49 -34.82504 149.35053 16002 ft 381 kts 20°
2026-04-26 01:49 -34.80022 149.36205 16658 ft 383 kts 20°
2026-04-26 01:50 -34.77528 149.37362 17119 ft 385 kts 20°
2026-04-26 01:50 -34.75106 149.38721 17250 ft 394 kts 34°
2026-04-26 01:50 -34.73116 149.41059 17289 ft 403 kts 52°
2026-04-26 01:50 -34.71652 149.43993 17290 ft 407 kts 60°
2026-04-26 01:51 -34.70341 149.47032 17272 ft 405 kts 62°
2026-04-26 01:51 -34.69062 149.50078 17269 ft 404 kts 62°
2026-04-26 01:51 -34.67779 149.53125 17267 ft 404 kts 61°
2026-04-26 01:51 -34.66488 149.56155 17271 ft 403 kts 61°
2026-04-26 01:52 -34.65186 149.59176 17277 ft 403 kts 61°
2026-04-26 01:52 -34.63890 149.62157 17270 ft 404 kts 61°
2026-04-26 01:52 -34.62571 149.65176 17274 ft 405 kts 61°
2026-04-26 01:52 -34.61243 149.68206 17277 ft 406 kts 61°
2026-04-26 01:53 -34.59916 149.71228 17273 ft 406 kts 61°
2026-04-26 01:53 -34.58581 149.74266 17276 ft 407 kts 61°
2026-04-26 01:53 -34.57247 149.77302 17275 ft 407 kts 61°
2026-04-26 01:53 -34.55911 149.80338 17274 ft 407 kts 61°
2026-04-26 01:54 -34.54597 149.83323 17268 ft 407 kts 61°
2026-04-26 01:54 -34.53264 149.86352 17268 ft 406 kts 61°
2026-04-26 01:54 -34.51929 149.89380 17267 ft 406 kts 61°
2026-04-26 01:54 -34.50594 149.92404 17273 ft 406 kts 61°
2026-04-26 01:55 -34.49262 149.95419 17273 ft 406 kts 61°
2026-04-26 01:55 -34.47925 149.98441 17274 ft 406 kts 61°
2026-04-26 01:55 -34.46624 150.01379 17268 ft 406 kts 61°
2026-04-26 01:55 -34.45284 150.04405 17272 ft 406 kts 61°
2026-04-26 01:56 -34.43952 150.07412 17275 ft 406 kts 61°
2026-04-26 01:56 -34.42615 150.10427 17277 ft 406 kts 61°
2026-04-26 01:56 -34.41278 150.13439 17276 ft 406 kts 61°
2026-04-26 01:56 -34.39940 150.16450 17277 ft 406 kts 61°
2026-04-26 01:57 -34.38613 150.19436 17259 ft 394 kts 61°
2026-04-26 01:57 -34.37361 150.22253 17255 ft 377 kts 61°
2026-04-26 01:57 -34.36130 150.25017 16979 ft 370 kts 60°
2026-04-26 01:57 -34.34915 150.27745 16618 ft 367 kts 60°
2026-04-26 01:58 -34.33709 150.30448 16223 ft 362 kts 61°
2026-04-26 01:58 -34.32511 150.33131 15788 ft 359 kts 61°
2026-04-26 01:58 -34.31325 150.35786 15360 ft 357 kts 61°
2026-04-26 01:58 -34.30147 150.38422 14932 ft 355 kts 61°
2026-04-26 01:59 -34.28974 150.41044 14512 ft 354 kts 61°
2026-04-26 01:59 -34.27817 150.43628 14079 ft 352 kts 61°
2026-04-26 01:59 -34.26739 150.46036 13614 ft 352 kts 61°
2026-04-26 01:59 -34.25577 150.48632 13167 ft 350 kts 61°
2026-04-26 02:00 -34.24428 150.51197 12737 ft 347 kts 61°
2026-04-26 02:00 -34.23278 150.53764 12307 ft 345 kts 61°
2026-04-26 02:00 -34.22141 150.56300 11891 ft 342 kts 61°
2026-04-26 02:00 -34.21009 150.58825 11481 ft 340 kts 61°
2026-04-26 02:01 -34.19883 150.61334 11106 ft 337 kts 62°
2026-04-26 02:01 -34.19150 150.62963 11026 ft 330 kts 62°
2026-04-26 02:01 -34.17721 150.66141 10725 ft 320 kts 62°
2026-04-26 02:01 -34.16659 150.68500 10434 ft 317 kts 62°
2026-04-26 02:02 -34.15620 150.70811 10244 ft 308 kts 62°
2026-04-26 02:02 -34.14940 150.72321 10135 ft 297 kts 62°
2026-04-26 02:02 -34.13986 150.74440 10000 ft 282 kts 62°
2026-04-26 02:02 -34.13068 150.76477 9774 ft 271 kts 62°
2026-04-26 02:03 -34.12178 150.78453 9537 ft 266 kts 61°
2026-04-26 02:03 -34.11293 150.80413 9266 ft 265 kts 61°
2026-04-26 02:03 -34.10412 150.82364 8995 ft 264 kts 61°
2026-04-26 02:03 -34.09555 150.84265 8773 ft 264 kts 61°
2026-04-26 02:04 -34.08669 150.86236 8560 ft 268 kts 61°
2026-04-26 02:04 -34.07786 150.88196 8343 ft 272 kts 61°
2026-04-26 02:04 -34.06879 150.90212 8116 ft 274 kts 61°
2026-04-26 02:04 -34.05970 150.92232 7879 ft 273 kts 60°
2026-04-26 02:05 -34.05063 150.94244 7663 ft 270 kts 61°
2026-04-26 02:05 -34.04177 150.96206 7446 ft 267 kts 60°
2026-04-26 02:05 -34.03336 150.98188 7220 ft 265 kts 70°
2026-04-26 02:05 -34.03173 151.00377 7000 ft 263 kts 101°
2026-04-26 02:06 -34.03850 151.02409 6788 ft 264 kts 123°
2026-04-26 02:06 -34.05026 151.04103 6568 ft 263 kts 132°
2026-04-26 02:06 -34.06299 151.05684 6324 ft 262 kts 133°
2026-04-26 02:06 -34.07598 151.07220 6106 ft 261 kts 141°
2026-04-26 02:07 -34.09250 151.08101 6008 ft 261 kts 165°
2026-04-26 02:07 -34.11050 151.08568 5674 ft 271 kts 168°
2026-04-26 02:07 -34.12894 151.09022 5450 ft 271 kts 168°
2026-04-26 02:07 -34.14728 151.09482 5217 ft 271 kts 168°
2026-04-26 02:08 -34.16552 151.09949 4965 ft 268 kts 167°
2026-04-26 02:08 -34.18373 151.10418 4727 ft 266 kts 167°
2026-04-26 02:08 -34.20180 151.10890 4489 ft 265 kts 167°
2026-04-26 02:08 -34.21946 151.11364 4360 ft 261 kts 167°
2026-04-26 02:09 -34.23670 151.12024 4275 ft 259 kts 148°
2026-04-26 02:09 -34.24930 151.13506 4258 ft 254 kts 117°
2026-04-26 02:09 -34.25431 151.15551 4102 ft 257 kts 88°
2026-04-26 02:09 -34.25173 151.17700 3876 ft 258 kts 74°
2026-04-26 02:10 -34.24741 151.19797 3620 ft 256 kts 72°
2026-04-26 02:10 -34.23996 151.21680 3364 ft 250 kts 52°
2026-04-26 02:10 -34.22952 151.23332 3117 ft 246 kts 49°
2026-04-26 02:10 -34.21769 151.24786 2987 ft 241 kts 28°
2026-04-26 02:11 -34.20186 151.25198 2970 ft 231 kts 351°
2026-04-26 02:11 -34.18768 151.24449 3005 ft 216 kts 331°
2026-04-26 02:11 -34.17409 151.23757 2982 ft 209 kts 344°
2026-04-26 02:11 -34.16030 151.23262 2966 ft 205 kts 345°
2026-04-26 02:12 -34.14671 151.22834 2976 ft 198 kts 347°
2026-04-26 02:12 -34.13344 151.22462 2959 ft 192 kts 348°
2026-04-26 02:12 -34.12041 151.22116 2962 ft 197 kts 349°
2026-04-26 02:12 -34.10681 151.21761 2844 ft 204 kts 349°
2026-04-26 02:13 -34.09309 151.21405 2563 ft 196 kts 348°
2026-04-26 02:13 -34.08021 151.21070 2328 ft 183 kts 349°
2026-04-26 02:13 -34.06814 151.20757 2089 ft 171 kts 349°
2026-04-26 02:13 -34.05701 151.20469 1868 ft 160 kts 349°
2026-04-26 02:14 -34.04663 151.20200 1711 ft 147 kts 349°
2026-04-26 02:14 -34.03693 151.19948 1562 ft 137 kts 348°
2026-04-26 02:14 -34.02733 151.19699 1327 ft 139 kts 349°
2026-04-26 02:14 -34.01757 151.19450 1110 ft 142 kts 347°
2026-04-26 02:15 -34.00804 151.19199 923 ft 139 kts 347°
2026-04-26 02:15 -33.99879 151.18950 758 ft 135 kts 347°
2026-04-26 02:15 -33.98951 151.18720 581 ft 138 kts 348°
2026-04-26 02:15 -33.98022 151.18489 407 ft 139 kts 349°
2026-04-26 02:16 -33.97089 151.18234 218 ft 136 kts 348°
2026-04-26 02:16 -33.96165 151.17996 35 ft 133 kts 349°
2026-04-26 02:16 -33.95373 151.17829 22 ft 68 kts 350°
2026-04-26 02:16 -33.95060 151.17712 21 ft 42 kts 341°
2026-04-26 02:17 -33.94789 151.17646 25 ft 35 kts 359°
2026-04-26 02:17 -33.94585 151.17662 22 ft 18 kts 12°
2026-04-26 02:17 -33.94508 151.17687 26 ft 9 kts 17°
2026-04-26 02:17 -33.94443 151.17710 25 ft 0 kts 17°
2026-04-26 02:19 -33.94441 151.17711 25 ft 2 kts 17°
2026-04-26 02:19 -33.94412 151.17722 25 ft 7 kts 17°
2026-04-26 02:19 -33.94351 151.17735 24 ft 9 kts 356°
2026-04-26 02:19 -33.94275 151.17716 20 ft 12 kts 346°
2026-04-26 02:20 -33.94200 151.17694 21 ft 10 kts 346°
2026-04-26 02:20 -33.94138 151.17676 21 ft 8 kts 346°
2026-04-26 02:20 -33.94087 151.17661 21 ft 7 kts 346°
2026-04-26 02:20 -33.94040 151.17647 20 ft 7 kts 346°
2026-04-26 02:21 -33.93989 151.17632 19 ft 7 kts 348°
2026-04-26 02:21 -33.93950 151.17622 18 ft 6 kts 348°
2026-04-26 02:21 -33.93907 151.17620 18 ft 6 kts 14°
2026-04-26 02:21 -33.93876 151.17649 19 ft 5 kts 54°
2026-04-26 02:22 -33.93865 151.17676 20 ft 0 kts 64°
2026-04-26 02:23 -33.93863 151.17680 19 ft 2 kts 69°
2026-04-26 02:23 -33.93854 151.17721 18 ft 10 kts 74°
2026-04-26 02:23 -33.93836 151.17798 21 ft 9 kts 74°